The Dalles, WA

2:18 PM PST on November 12, 2019 (GMT -0800)
Columbia Gorge Regional-The Dalles

Weather History for KDLS - May, 2019

Change the Weather History Date:

Thursday, May 23, 2019

  Actual Average Record
Temperature  
Mean Temperature 68 °F -  
Max Temperature 82 °F 75 °F 99 °F (2001)
Min Temperature 54 °F 50 °F 34 °F (1964)
Cooling Degree Days 3    
Growing Degree Days 18 (Base 50)    
Moisture  
Dew Point 50 °F    
Average Humidity 57    
Maximum Humidity 84    
Minimum Humidity 25    
Precipitation  
Precipitation 0.00 in - - ()
Sea Level Pressure  
Sea Level Pressure 29.88 in    
Wind  
Wind Speed 11 mph (NW)    
Max Wind Speed 24 mph    
Max Gust Speed 38 mph    
Visibility 10 miles    
Events Rain , Thunderstorm    
Averages and records for this station are not official NWS values.
T = Trace of Precipitation, MM = Missing Value Source: NWS Daily Summary

Daily Weather History Graph

Daily Weather History Graph

Search for Another Location

Airport or City:

Astronomy

May. 23, 2019 Rise Set
Actual Time 5:25 AM PDT 8:37 PM PDT
Civil Twilight 4:49 AM PDT 9:13 PM PDT
Nautical Twilight 4:03 AM PDT 10:00 PM PDT
Astronomical Twilight 3:06 AM PDT 10:58 PM PDT
Moon 12:25 AM PDT (5/23) 9:33 AM PDT (5/23)
Length of Visible Light 16h 24m
Length of Day
15h 12m
Waning Gibbous, 76% of the Moon is Illuminated
May 23
Waning Gibbous
May 26
Last Quarter
Jun 3
New
Jun 9
First Quarter
Jun 17
Full

Hourly Weather History & Observations

Time (PDT) Temp. Dew Point Humidity Pressure Visibility Wind Dir Wind Speed Gust Speed Precip Events Conditions
12:53 AM 60.1 °F 51.1 °F 72% 29.96 in 10.0 mi NW 10.4 mph - N/A   Overcast
1:53 AM 59.0 °F 51.1 °F 75% 29.95 in 10.0 mi NNW 10.4 mph - N/A   Mostly Cloudy
2:53 AM 57.0 °F 51.1 °F 81% 29.96 in 10.0 mi NW 11.5 mph - N/A   Clear
3:53 AM 55.9 °F 51.1 °F 84% 29.96 in 10.0 mi NW 15.0 mph 21.9 mph N/A   Clear
4:53 AM 55.0 °F 50.0 °F 83% 29.96 in 10.0 mi NW 13.8 mph - N/A   Clear
5:53 AM 54.0 °F 48.9 °F 83% 29.96 in 10.0 mi WNW 9.2 mph - N/A   Clear
6:53 AM 57.0 °F 50.0 °F 77% 29.97 in 10.0 mi NW 12.7 mph - N/A   Clear
7:53 AM 59.0 °F 50.0 °F 72% 29.97 in 10.0 mi NW 13.8 mph - N/A   Clear
8:53 AM 63.0 °F 51.1 °F 65% 29.96 in 10.0 mi NW 12.7 mph - N/A   Clear
9:53 AM 68.0 °F 52.0 °F 56% 29.94 in 10.0 mi NNW 9.2 mph - N/A   Clear
10:53 AM 73.0 °F 51.1 °F 46% 29.91 in 10.0 mi NNW 11.5 mph - N/A   Clear
11:53 AM 75.9 °F 50.0 °F 40% 29.90 in 10.0 mi NNW 8.1 mph - N/A   Clear
12:53 PM 77.0 °F 46.0 °F 33% 29.87 in 10.0 mi Variable 3.5 mph - N/A   Clear
1:53 PM 81.0 °F 43.0 °F 26% 29.85 in 10.0 mi Variable 3.5 mph - N/A   Clear
2:53 PM 82.9 °F 44.1 °F 25% 29.83 in 10.0 mi Variable 3.5 mph - N/A   Clear
3:53 PM 82.0 °F 50.0 °F 33% 29.81 in 10.0 mi NNW 12.7 mph - N/A   Clear
4:53 PM 80.1 °F 51.1 °F 36% 29.80 in 10.0 mi NNW 15.0 mph - N/A   Clear
5:53 PM 77.0 °F 54.0 °F 45% 29.79 in 10.0 mi NNW 18.4 mph - N/A   Clear
6:53 PM 72.0 °F 54.0 °F 53% 29.79 in 10.0 mi NNW 18.4 mph 25.3 mph N/A   Clear
7:26 PM 73.0 °F 53.1 °F 49% 29.79 in 10.0 mi NW 23.0 mph 29.9 mph N/A Thunderstorm Overcast
7:41 PM 71.1 °F 53.1 °F 53% 29.78 in 10.0 mi West 24.2 mph 38.0 mph 0.00 in Rain , Thunderstorm Light Thunderstorms and Rain
7:53 PM 70.0 °F 50.0 °F 49% 29.79 in 10.0 mi West 24.2 mph 29.9 mph 0.00 in Thunderstorm Thunderstorm
8:16 PM 66.0 °F 48.9 °F 54% 29.82 in 10.0 mi WSW 10.4 mph 29.9 mph N/A   Overcast
8:53 PM 66.9 °F 50.0 °F 54% 29.82 in 10.0 mi NW 9.2 mph - N/A   Scattered Clouds
9:53 PM 62.1 °F 51.1 °F 67% 29.84 in 10.0 mi ENE 3.5 mph - N/A   Scattered Clouds
10:53 PM 62.1 °F 53.1 °F 72% 29.83 in 10.0 mi Calm Calm - N/A   Clear
11:53 PM 64.0 °F 53.1 °F 67% 29.83 in 10.0 mi WNW 8.1 mph - N/A   Clear